Location: *
(46.1833°N, 22.7667°E)
Time: 07:15:57
(UTC+00:00)

Cosmos 2278 Rocket - Pass Details

Date: 17 September 2019
Orbit: 839 x 847 km, 71.0° (Epoch: 20 October)

Event Time Altitude Azimuth Distance (km) Brightness Sun altitude
Exits shadow 23:37:44 27° 33° (NNE) 1,594 4.0 -39.0°
Drops below altitude 10° 23:40:10 10° 30° (NNE) 2,477 5.3 -38.9°
Sets 23:42:38 0° 28° (NNE) 3,417 6.3 -38.7°
